CAPE
0 0 0 0 0 0 0 0 0 0 0 246 551 583 515 397 82 63 362 743 605 737 80 413 23 659 890 1297 1020 959 296 417 6 0 0 14 197 149 115 112 87 29 22
0 0 0 0 0 0 0 0 0 0 0 272 457 363 509 431 417 576 616 392 320 370 424 469 36 186 1463 1092 1229 844 216 66 90 32 0 0 0 0 106 133 58 28 32
0 0 0 0 0 0 0 0 0 0 0 93 375 477 308 65 359 550 466 237 220 489 868 210 13 151 1304 1599 1118 706 385 188 251 0 24 23 20 0 0 0 4 100 96
0 0 0 0 0 0 0 0 0 0 0 31 298 341 330 246 113 122 327 514 445 498 905 506 281 165 1024 1315 1302 934 786 301 317 73 0 0 0 10 35 0 0 5 27
0 0 0 0 0 0 0 0 0 0 0 13 191 209 138 60 90 55 143 84 512 261 676 899 1119 933 1307 1180 1283 950 689 599 334 256 124 1 39 1 0 8 3 0 3
0 0 0 0 0 0 0 0 0 0 0 0 75 151 120 81 61 55 23 32 309 299 204 284 751 725 1075 1471 991 1078 826 479 260 179 219 0 9 66 23 2 0 0 1
0 0 0 0 0 0 0 0 0 0 7 20 4 53 27 0 63 99 146 409 282 189 273 129 342 1170 1015 1527 1034 1157 794 677 431 189 173 2 13 39 11 0 12 0 0
0 0 0 0 0 0 0 0 0 0 0 114 114 2 3 0 3 142 198 260 298 286 188 218 199 833 876 1111 976 945 1017 885 877 176 91 8 5 0 19 1 1 2 1
0 0 0 0 0 0 0 0 0 0 0 3 134 51 0 0 0 0 82 90 49 0 55 73 487 501 648 637 526 565 635 867 1069 181 92 10 4 2 5 0 0 0 0
0 0 0 0 0 0 0 0 0 0 0 0 5 152 90 31 15 17 78 58 62 179 407 323 285 286 325 407 448 402 411 510 685 246 257 78 4 1 8 2 2 2 0
0 0 0 0 0 0 0 0 3 0 2 1 0 112 286 265 255 304 351 318 279 270 232 277 165 130 243 345 441 378 535 611 490 330 362 225 67 40 15 5 3 2 0
0 0 0 0 0 0 0 0 0 0 0 49 163 229 407 613 631 710 704 572 534 439 418 369 286 330 521 983 1392 1351 1288 779 868 936 487 320 148 111 68 18 1 0 0
0 0 0 0 0 0 0 0 0 0 0 172 454 536 666 1070 1123 1125 1134 1038 904 698 581 870 1313 1749 1738 1206 1042 1013 1194 1300 1171 941 709 348 164 63 5 3 0 0 0
0 0 0 0 0 0 0 0 0 2 199 622 854 910 987 1214 1351 1361 1284 1327 1293 1386 1177 975 1259 1058 1003 1115 1181 1088 1179 1059 896 905 834 795 239 76 23 2 1 0 0
66 3 0 0 5 31 11 0 0 146 513 857 1132 1270 1313 1379 1415 1488 1552 979 638 578 480 678 786 829 946 1028 1163 636 871 682 626 541 619 795 455 71 11 1 1 0 0
224 115 82 455 791 751 683 875 941 828 1043 1163 1312 1302 1490 1433 1237 593 433 477 649 518 758 809 772 838 1029 463 14 1 128 121 265 413 276 77 143 42 0 0 0 0 0
414 425 594 1011 1109 1103 1107 1081 829 698 1033 892 636 670 611 471 375 567 500 390 657 676 585 421 610 408 2 0 1 0 1 128 458 468 47 31 1 0 0 0 0 0 0
643 715 1102 1331 1175 906 649 270 336 396 348 205 97 338 410 383 456 540 570 598 435 290 200 153 14 3 2 0 0 2 189 291 77 11 1 1 0 0 0 0 0 0 0
1053 1037 1358 1508 945 678 376 495 503 503 489 383 451 661 641 545 405 350 181 194 26 28 63 5 3 4 1 0 1 0 23 132 134 1 0 0 0 0 0 0 0 0 0
1503 1531 1554 1316 915 707 575 500 482 653 723 684 691 490 252 129 84 34 30 15 1 1 2 4 3 0 2 1 1 0 3 1 2 30 0 0 0 0 0 0 0 0 0
1577 1750 1463 1261 908 654 458 456 356 502 361 426 296 29 0 0 0 0 0 0 1 1 5 3 4 3 1 1 1 1 1 2 2 7 1 0 0 0 0 0 0 0 0
1583 1650 1400 941 563 368 364 196 182 0 53 23 0 0 0 0 0 0 0 0 0 0 0 3 2 8 5 0 0 0 0 0 3 4 4 0 0 0 0 0 0 0 0
1527 1312 1302 696 445 195 150 56 1 24 0 0 0 0 0 0 0 0 0 0 0 0 0 1 0 2 2 1 0 0 0 0 1 2 1 0 0 0 0 0 0 0 0
1432 1178 568 337 195 37 18 14 0 0 0 0 0 0 0 0 0 0 0 0 0 1 2 1 0 0 0 0 1 1 2 0 0 1 0 0 0 0 0 0 0 0 0
297 373 365 262 47 0 0 0 0 0 0 0 0 0 1 0 1 1 0 0 1 0 0 0 0 0 0 2 1 1 1 1 1 1 1 1 1 0 0 1 0 0 0
48 30 4 1 3 3 1 0 0 0 0 0 0 0 1 1 0 2 2 0 0 1 1 0 0 0 0 0 0 0 2 1 1 0 1 1 1 1 1 0 2 1 0
CIN
-0 -0 -0 -0 -0 -0 -0 -0 -0 -0 -0 -241 -140 -123 -111 -164 -256 -350 -252 -224 -219 -189 -309 -238 -165 -193 -170 -146 -172 -179 -222 -176 -119 -0 -0 -152 -245 -255 -273 -273 -241 -216 -300
-0 -0 -0 -0 -0 -0 -0 -0 -0 -0 -0 -224 -168 -145 -133 -168 -220 -270 -235 -241 -228 -226 -224 -230 -265 -256 -140 -170 -150 -153 -192 -284 -319 -179 -0 -0 -0 -0 -242 -185 -171 -191 -178
-0 -0 -0 -0 -0 -0 -0 -0 -0 -0 -0 -299 -193 -176 -190 -263 -180 -156 -209 -227 -248 -208 -191 -275 -203 -265 -167 -126 -153 -156 -156 -169 -186 -0 -52 -45 -53 -0 -0 -78 -146 -70 -92
-0 -0 -0 -0 -0 -0 -0 -0 -0 -0 -0 -388 -203 -152 -109 -104 -202 -231 -249 -218 -219 -217 -181 -207 -241 -279 -191 -151 -148 -155 -132 -159 -99 -226 -0 -0 -0 -117 -81 -0 -0 -132 -119
-0 -0 -0 -0 -0 -0 -0 -0 -0 -0 -0 -337 -235 -197 -190 -258 -296 -286 -210 -287 -261 -263 -194 -182 -174 -193 -165 -167 -141 -134 -140 -128 -132 -123 -212 -10 -211 -12 -11 -81 -135 -0 -0
-0 -0 -0 -0 -0 -0 -0 -0 -0 -0 -0 -0 -297 -235 -212 -228 -222 -207 -226 -304 -251 -262 -267 -223 -217 -234 -185 -152 -172 -130 -135 -134 -171 -183 -175 -0 -110 -46 -41 -84 -0 -0 -134
-0 -0 -0 -0 -0 -0 -0 -0 -0 -0 -116 -211 -112 -328 -283 -0 -253 -272 -232 -208 -223 -247 -216 -267 -216 -167 -190 -130 -150 -134 -139 -132 -131 -167 -125 -116 -164 -98 -75 -0 -50 -7 -0
-0 -0 -0 -0 -0 -0 -0 -0 -0 -0 -0 -334 -317 -28 -49 -0 -40 -324 -304 -279 -260 -252 -264 -236 -254 -170 -168 -148 -163 -145 -127 -124 -108 -171 -162 -113 -135 -8 -78 -52 -0 -208 -0
-0 -0 -0 -0 -0 -0 -0 -0 -0 -0 -0 -407 -333 -386 -0 -0 -0 -0 -365 -377 -357 -0 -28 -324 -176 -167 -155 -168 -179 -169 -170 -128 -98 -153 -114 -176 -27 -0 -64 -0 -0 -0 -0
-0 -0 -0 -0 -0 -0 -0 -0 -0 -0 -0 -0 -85 -381 -388 -414 -166 -177 -407 -384 -362 -304 -221 -221 -217 -205 -196 -198 -191 -195 -202 -153 -130 -143 -89 -134 -73 -0 -40 -17 -4 -0 -0
-0 -0 -0 -0 -0 -0 -0 -0 -181 -0 -262 -372 -0 -424 -391 -401 -401 -360 -336 -311 -298 -295 -290 -258 -282 -288 -242 -221 -205 -204 -155 -149 -141 -140 -109 -100 -101 -60 -84 -30 -10 -0 -0
-0 -0 -0 -0 -0 -0 -0 -0 -0 -0 -0 -579 -546 -470 -406 -364 -334 -310 -289 -289 -267 -277 -282 -277 -281 -259 -216 -154 -119 -106 -90 -129 -119 -92 -114 -93 -84 -56 -47 -91 -0 -0 -0
-0 -0 -0 -0 -0 -0 -0 -0 -0 -0 -0 -583 -481 -476 -427 -339 -307 -300 -266 -238 -235 -236 -237 -195 -135 -85 -80 -117 -128 -118 -103 -81 -73 -90 -100 -126 -111 -99 -154 -178 -0 -0 -0
-0 -0 -0 -0 -0 -0 -0 -0 -0 -162 -639 -507 -447 -422 -409 -358 -306 -281 -248 -220 -205 -173 -190 -184 -123 -136 -126 -111 -102 -100 -83 -85 -95 -96 -100 -98 -139 -126 -189 -124 -0 -0 -0
-757 -726 -0 -0 -169 -775 -737 -0 -0 -763 -616 -485 -424 -404 -375 -331 -293 -242 -221 -271 -301 -290 -286 -232 -173 -135 -118 -90 -53 -125 -85 -94 -117 -143 -136 -113 -137 -192 -235 -0 -0 -0 -0
-665 -863 -1016 -896 -818 -801 -795 -722 -649 -620 -550 -482 -422 -390 -330 -309 -301 -385 -397 -320 -259 -277 -224 -178 -166 -138 -85 -166 -162 -0 -259 -242 -171 -168 -216 -266 -211 -256 -0 -0 -0 -0 -0
-591 -757 -832 -767 -749 -732 -708 -666 -692 -692 -558 -536 -537 -470 -443 -443 -440 -350 -306 -317 -237 -222 -214 -230 -156 -188 -0 -0 -0 -0 -0 -236 -127 -165 -344 -379 -0 -0 -0 -0 -0 -0 -0
-580 -698 -722 -684 -709 -745 -774 -878 -810 -746 -718 -730 -728 -553 -468 -425 -363 -308 -255 -218 -251 -285 -286 -296 -206 -0 -0 -0 -0 -0 -182 -134 -305 -391 -175 -115 -0 -0 -0 -0 -0 -0 -0
-498 -524 -553 -634 -720 -756 -799 -721 -690 -646 -599 -587 -516 -410 -392 -364 -369 -354 -406 -359 -313 -481 -394 -0 -0 -0 -0 -0 -0 -0 -295 -236 -194 -23 -0 -0 -0 -0 -0 -0 -0 -0 -0
-442 -467 -472 -473 -658 -693 -701 -672 -644 -544 -475 -447 -407 -424 -492 -542 -543 -572 -490 -542 -0 -0 -0 -0 -0 -0 -0 -0 -0 -0 -0 -0 -247 -245 -0 -0 -0 -0 -0 -0 -0 -0 -0
-394 -407 -430 -431 -503 -610 -686 -651 -652 -554 -555 -479 -487 -523 -0 -0 -0 -0 -0 -0 -0 -0 -3 -0 -0 -0 -0 -0 -0 -0 -0 -0 -0 -201 -0 -0 -0 -0 -0 -0 -0 -0 -0
-324 -307 -365 -457 -521 -599 -597 -688 -655 -0 -631 -611 -0 -0 -0 -0 -0 -0 -0 -0 -0 -0 -0 -1 -0 -0 -0 -0 -0 -0 -0 -0 -0 -0 -0 -0 -0 -0 -0 -0 -0 -0 -0
-192 -255 -243 -402 -520 -612 -645 -646 -62 -656 -13 -0 -0 -0 -0 -0 -0 -0 -0 -0 -0 -0 -0 -0 -0 -0 -0 -0 -0 -0 -0 -0 -0 -0 -0 -0 -0 -0 -0 -0 -0 -0 -0
-165 -232 -351 -409 -500 -720 -699 -527 -0 -0 -0 -0 -0 -0 -0 -0 -0 -0 -0 -0 -0 -0 -0 -0 -0 -0 -0 -0 -0 -0 -0 -0 -0 -0 -0 -0 -0 -0 -0 -0 -0 -0 -0
-368 -390 -405 -398 -575 -0 -0 -0 -0 -0 -0 -0 -0 -0 -0 -0 -0 -0 -0 -0 -0 -0 -0 -0 -0 -0 -0 -0 -0 -0 -0 -0 -0 -0 -0 -0 -0 -0 -0 -0 -0 -0 -0
-462 -562 -355 -0 -0 -0 -0 -0 -0 -0 -0 -0 -0 -0 -0 -0 -0 -0 -0 -0 -0 -0 -0 -0 -0 -0 -0 -0 -0 -0 -0 -0 -0 -0 -0 -0 -0 -0 -0 -0 -0 -0 -0
Wind_Speed
14 9 11 11 9 7 8 9 8 7 4 2 2 1 3 2 3 2 4 5 4 3 3 3 3 4 1 2 3 2 4 2 2 2 3 3 4 4 4 2 3 2 3
7 7 8 9 12 12 12 8 8 7 6 3 2 2 2 2 3 3 2 2 3 4 4 4 4 1 1 3 3 2 3 2 2 1 1 2 2 2 3 4 1 4 2
11 8 9 11 10 10 11 10 9 8 6 6 2 0 1 1 2 2 1 1 3 4 5 4 4 2 1 2 2 2 0 2 1 2 1 1 2 2 2 6 4 1 3
11 10 11 8 11 12 9 8 8 8 7 8 4 4 3 2 1 1 2 4 3 5 4 4 4 4 2 4 4 3 3 2 3 0 1 2 2 2 2 2 2 1 2
14 13 14 15 14 11 11 10 7 6 6 7 6 5 4 2 1 1 3 4 4 3 3 4 4 5 4 5 5 3 5 3 2 3 3 1 1 2 2 2 2 1 1
16 15 15 11 10 8 8 8 8 9 7 7 7 8 7 5 3 3 3 3 2 2 3 4 4 5 6 7 5 4 4 4 4 4 2 1 4 3 2 1 2 3 2
16 14 13 13 12 13 11 8 9 9 7 8 7 8 7 6 7 5 4 3 2 2 4 3 5 3 4 4 4 5 5 5 4 4 0 4 4 3 3 3 4 5 3
15 17 17 16 15 14 13 11 10 11 8 8 9 7 7 4 4 5 4 3 3 3 3 5 5 5 3 4 4 3 4 5 5 4 5 3 4 5 4 4 4 2 3
15 17 16 15 14 12 14 15 11 11 8 10 8 7 7 7 7 7 4 3 3 3 5 5 4 4 3 4 4 4 6 4 4 3 6 6 8 6 7 6 4 4 3
12 12 12 14 13 12 12 11 12 12 11 10 8 8 8 8 6 5 6 5 4 3 4 4 4 5 5 5 5 5 6 4 4 5 9 8 6 7 7 7 5 4 2
12 12 13 14 14 11 12 14 12 11 11 11 9 9 8 8 6 6 5 5 4 5 5 5 5 6 5 5 5 6 6 8 8 5 9 8 7 8 7 6 3 2 3
11 9 9 12 12 14 12 14 13 11 11 8 7 9 7 7 7 7 6 5 6 4 5 4 5 5 6 6 6 7 6 8 8 7 8 9 6 9 6 5 5 3 5
8 7 8 9 12 12 12 12 11 13 9 9 9 7 9 8 9 8 6 5 4 4 5 5 5 5 5 6 6 6 7 7 8 8 7 7 6 7 5 6 5 4 4
8 7 7 8 8 9 12 11 11 10 8 9 9 9 9 9 8 5 5 5 4 4 3 3 5 4 5 6 7 7 7 7 7 8 7 7 6 6 7 6 7 6 6
9 9 9 8 7 8 8 7 7 7 7 8 8 9 6 7 6 6 6 5 3 3 3 3 4 6 6 6 6 7 8 8 8 7 8 7 6 8 10 6 7 8 6
8 8 8 9 10 10 9 7 8 8 8 9 9 7 7 7 8 7 7 5 3 1 2 3 5 7 6 11 9 6 5 7 7 6 5 5 3 5 6 10 14 14 11
11 13 13 11 10 10 9 9 7 5 6 6 6 6 7 8 8 7 6 4 3 3 4 6 5 7 9 14 11 10 5 6 7 6 4 2 3 6 7 8 11 10 9
7 9 9 9 9 8 7 8 8 8 9 8 8 8 9 9 8 7 7 6 4 5 5 6 6 7 8 13 13 10 5 5 6 6 5 3 3 4 7 7 7 7 5
3 3 5 11 8 11 10 10 10 10 10 10 10 10 10 10 9 8 7 6 6 6 7 5 6 6 9 14 15 9 8 7 6 5 5 3 4 5 8 8 7 6 3
4 6 6 3 10 11 11 11 11 10 10 10 10 9 8 9 9 7 6 4 6 7 7 8 7 7 8 15 15 9 5 6 6 5 5 4 4 7 7 6 6 5 3
7 9 7 7 6 9 12 11 10 10 8 9 9 8 7 9 8 7 5 6 7 6 7 8 6 7 7 8 11 12 7 4 4 4 3 2 4 7 7 6 4 4 5
4 7 11 10 8 9 10 11 11 8 10 11 10 7 7 7 6 9 6 7 7 7 5 6 5 5 6 9 11 11 8 9 4 4 3 2 7 7 9 6 6 8 8
3 3 5 7 10 9 9 11 8 11 12 12 11 9 7 7 6 7 7 6 5 5 5 4 5 4 5 5 8 7 9 8 4 4 6 6 9 8 5 5 7 6 5
5 7 7 8 8 9 9 10 10 9 10 12 11 9 9 7 6 5 4 5 4 5 6 6 5 4 5 6 7 7 6 6 5 5 4 1 5 6 5 4 5 2 3
1 4 9 9 7 4 7 9 10 9 7 9 9 8 8 8 8 7 5 5 4 5 6 5 4 4 5 5 7 4 4 3 4 6 0 2 2 3 3 3 5 5 3
3 6 7 9 7 4 7 5 5 8 11 7 7 6 7 7 7 6 6 14 12 15 14 11 6 4 4 5 10 12 7 5 3 1 2 1 1 3 3 4 4 5 9
Wind_Direction
220 208 195 186 176 187 183 190 187 199 160 179 180 226 254 301 302 276 235 217 229 172 197 237 244 244 35 346 10 347 42 345 354 349 354 41 33 69 102 116 118 234 87
193 190 179 175 182 189 195 190 202 184 187 169 187 176 201 251 264 281 255 184 203 190 203 223 241 252 307 332 326 360 23 312 8 25 92 333 334 13 39 103 128 160 221
201 187 177 185 181 187 193 199 205 199 180 180 134 81 323 324 345 347 332 280 203 225 222 229 256 235 234 288 294 301 140 267 272 96 177 323 260 323 48 45 26 355 224
201 192 187 181 190 199 196 205 209 197 191 175 169 182 188 191 250 267 293 303 257 229 229 227 240 262 242 246 238 202 226 202 252 250 187 195 165 173 19 37 343 260 189
192 190 196 198 200 192 192 196 204 215 200 174 188 186 205 203 235 297 322 324 306 223 233 238 246 240 227 243 243 218 215 202 225 205 236 211 67 68 124 274 266 227 260
197 201 203 189 198 189 187 184 192 212 199 186 191 196 206 199 204 250 265 286 311 303 267 255 248 243 231 229 241 270 237 229 219 242 240 69 28 348 267 224 277 237 210
193 196 183 190 190 190 187 180 184 215 199 197 195 200 213 205 210 223 235 253 284 278 287 292 328 298 252 244 252 258 250 231 211 210 102 145 188 209 200 168 240 243 215
193 194 194 194 195 192 193 193 184 211 190 197 212 204 205 205 217 217 225 238 231 254 298 299 293 286 270 228 225 250 260 252 237 205 192 182 185 214 201 189 200 251 221
191 197 193 194 192 186 192 194 189 204 192 206 214 207 203 206 217 222 219 238 252 259 269 263 280 307 268 240 242 243 253 239 255 239 182 181 214 201 219 215 187 193 203
191 194 192 192 192 188 191 191 194 196 202 199 200 208 209 214 219 206 223 229 255 240 267 258 261 285 287 266 262 269 271 275 250 213 221 199 204 209 225 224 212 191 167
191 188 192 195 192 181 178 189 196 197 194 195 200 205 209 207 200 208 214 221 239 242 256 257 270 266 270 276 277 284 291 272 272 254 237 220 194 213 217 218 190 119 138
198 182 182 185 183 188 185 194 201 197 204 193 182 200 202 194 200 205 207 205 232 241 246 258 263 273 273 271 272 285 285 279 285 267 234 228 202 227 206 197 165 141 146
199 171 175 180 184 183 188 194 198 206 191 171 191 190 200 192 207 202 199 202 226 242 253 248 253 265 278 289 285 283 287 283 288 286 274 250 200 217 177 183 145 135 136
190 171 179 188 178 176 186 192 200 198 175 172 186 198 198 196 201 183 165 201 210 228 234 275 293 299 291 284 286 291 302 303 291 288 280 255 204 206 185 181 137 127 136
176 183 181 187 178 176 186 186 190 178 165 177 187 204 181 179 153 149 142 133 143 191 270 313 316 303 302 299 315 305 301 306 303 304 300 270 227 191 176 162 141 134 136
200 178 174 172 173 177 180 167 175 184 169 178 187 158 159 148 146 143 123 140 163 280 357 350 346 329 331 335 318 330 323 325 309 314 323 336 350 162 167 144 148 154 150
193 184 184 179 175 169 163 169 159 133 135 128 120 128 130 128 126 127 125 163 142 108 54 27 3 9 18 357 7 356 330 322 329 334 325 358 48 120 149 141 137 149 161
208 181 178 171 167 152 138 128 133 130 127 125 128 132 130 130 135 137 141 133 115 83 66 46 34 56 24 15 18 351 7 10 10 7 357 17 72 115 132 127 111 135 137
217 285 275 167 147 149 143 137 132 131 133 138 143 146 140 138 139 136 136 129 108 95 83 71 62 59 34 15 26 20 25 13 10 24 24 61 89 87 107 124 111 118 98
192 150 148 187 148 152 148 139 137 139 144 151 145 140 138 134 133 134 128 115 107 111 108 94 80 62 56 28 25 22 30 22 0 5 30 72 123 115 116 115 123 109 99
207 140 140 167 168 150 146 143 145 156 142 129 128 130 129 128 127 118 115 118 113 114 116 102 88 78 53 44 30 23 36 4 351 4 18 33 108 108 84 93 96 110 133
166 179 165 160 158 159 152 151 157 145 135 132 125 117 119 122 118 115 111 112 117 110 109 105 91 70 48 42 21 14 12 9 360 1 0 95 139 122 108 91 109 128 118
152 166 183 171 160 165 165 157 150 149 143 135 130 122 120 114 113 117 119 111 109 105 97 83 74 46 28 23 12 4 351 4 359 0 331 150 135 123 110 108 144 165 132
160 151 147 170 210 171 169 153 149 153 146 134 130 127 124 113 95 82 75 94 102 97 94 90 72 40 23 16 360 350 349 351 344 5 355 205 134 146 128 123 158 303 178
30 137 159 184 184 215 128 135 132 130 128 125 122 117 113 107 91 66 60 85 44 90 109 97 83 47 26 356 303 290 329 345 331 324 105 94 120 175 192 163 165 130 254
107 98 98 102 94 90 85 65 344 137 140 128 111 114 113 107 106 101 83 43 63 71 69 59 67 71 50 331 352 356 1 7 12 115 11 24 180 186 184 194 176 178 206